Terug naar catalogus

SCOUT X-4 DEB

ActiefLEO
NORAD 2088·DEBRIS·🇺🇸 United States

Gelanceerd Nov 19, 1965 vanaf Wallops Flight Facility

Loading…

Volgende Passages (komende 24 uur)

TLE

VersSource: Space-Track

Epoch: Sep 14, 2026, 08:40 UTC

1 02088U 65093D   26257.36158000  .00000646  00000-0  15420-3 0  9997
2 02088  59.7130 236.9363 0081828 141.6987 218.9912 14.62520557166945

Volg SCOUT X-4 DEB in realtime met AllMySat

Download on the App Store